Regional Weather Roundup
Issued by NWS

Home | Current Version | Previous Version | Graphics & Text | Print | Product List | Glossary On
Versions: 1 2 3 4 5 6 7 8 9 10 11 12 13 14 15 16 17 18 19 20 21 22 23 24 25 26 27 28 29 30 31 32 33 34 35 36 37 38 39 40 41 42 43 44 45 46 47 48 49 50
000
ASUS45 KSLC 280910
RWRUT

UTAH REGIONAL WEATHER ROUNDUP
NATIONAL WEATHER SERVICE SALT LAKE CITY UT
300 AM MDT FRI AUG 28 2015

UTZ001>011-023>025-281000-

NORTHERN UTAH

CITY           SKY/WX    TMP DP  RH WIND       PRES   REMARKS
BRIGHAM CITY   CLEAR     64  52  66 CALM      30.18F
HILL AFB       CLEAR     66  44  43 E15       30.21S
LOGAN          CLEAR     56  51  84 SE3       30.20F
OGDEN          CLEAR     66  44  45 S9        30.18S
PROVO AIRPORT  CLEAR     63  46  55 SE3       30.21S
SALT LAKE CITY CLEAR     70  46  42 S9        30.17S
VERNAL         CLEAR     58  41  53 NW3       30.28R
WENDOVER       PTCLDY    70  43  37 NE3       30.16S
HEBER CITY     CLEAR     50  43  76 CALM      30.31S
WEST JORDAN    CLEAR     66  45  45 S7        30.21R

$$

UTZ012>022-026-027-281000-

SOUTHERN/CENTRAL UTAH

CITY           SKY/WX    TMP DP  RH WIND       PRES   REMARKS
BLANDING       PTCLDY    66  45  46 E5        30.32S
BRYCE CANYON   CLEAR     50  44  80 W9        30.42F
CEDAR CITY     CLEAR     57  45  64 NE5       30.26S
DELTA          CLEAR     64  43  46 CALM      30.21S
HANKSVILLE     CLEAR     64  55  72 MISG      30.20R
MILFORD        CLEAR     57  44  62 S5        30.22S
MOAB/CYNLANDS  CLEAR     71  46  40 SE3       30.17S
PRICE          PTCLDY    61  43  51 N10       30.28F
ST GEORGE      SUNNY     75  48  38 CALM      30.07S
KANAB          CLEAR     64  55  72 NE3       30.27S

$$

REGIONAL REPORTS     COLORADO/ARIZONA

CITY           SKY/WX    TMP DP  RH WIND       PRES   REMARKS
CRAIG, CO      CLEAR     50  46  86 CALM      30.34F
GRAND JUNCTION CLEAR     60  54  80 E7        30.23F
RIFLE          CLEAR     55  52  89 SE3       30.32S
MONTROSE       PTCLDY    59  52  77 E9        30.32F
CORTEZ         CLEAR     56  51  84 E3        30.26S
PAGE, AZ       CLEAR     76  51  41 SW3       30.14S
GRAND CANYON   PTCLDY    51  44  77 CALM      30.34F
KINGMAN        CLEAR     74  54  49 SE6       30.08F
FLAGSTAFF      PTCLDY    53  52  96 CALM      30.36F

$$

REGIONAL REPORTS    NEVADA/IDAHO/WYOMING

CITY           SKY/WX    TMP DP  RH WIND       PRES   REMARKS
LAS VEGAS, NV  CLEAR     88  51  28 SW5       29.93S
ELY            CLEAR     52  43  71 S8        30.31F
ELKO           PTCLDY    56  35  45 CALM      30.20S
POCATELLO, ID  CLEAR     67  34  29 S8        30.17S
BURLEY         CLEAR     57  45  64 CALM      30.13F
EVANSTON, WY   PTCLDY    53  38  56 SE8       30.38S
ROCK SPRINGS   CLEAR     54  43  66 S8        30.35F
KEMMERER       CLEAR     45  36  70 N6        30.40R

$$



USA.gov is the U.S. government's official web portal to all federal, state and local government web resources and services.